Regional Weather Roundup
Issued by NWS

Home | Current Version | Previous Version | Text Only | Print | Product List | Glossary On
Versions: 1 2 3 4 5 6 7 8 9 10 11 12 13 14 15 16 17 18 19 20 21 22 23 24 25 26 27 28 29 30 31 32 33 34 35 36 37 38 39 40 41 42 43 44 45 46 47 48 49 50
000
ASUS43 KTOP 221759
RWRKS

WEATHER ROUNDUP FOR KANSAS
NATIONAL WEATHER SERVICE GOODLAND KS
100 PM CDT TUE JUL 22 2014

NOTE:  "FAIR" INDICATES FEW OR NO CLOUDS BELOW 12,000 FEET WITH NO
SIGNIFICANT WEATHER AND/OR OBSTRUCTIONS TO VISIBILITY.

KSZ001>006-013>018-027>032-041>047-221900-
NORTHWEST KANSAS

CITY           SKY/WX    TMP DP  RH WIND       PRES   REMARKS
GOODLAND       SUNNY     90  59  35 E9        30.19R
6HR MIN TEMP:  67; 6HR MAX TEMP:  90;

HAYS           SUNNY     91  66  43 SW7       30.09S
HILL CITY      SUNNY     93  64  38 VRB7      30.09S
6HR MIN TEMP:  66; 6HR MAX TEMP:  93;

RUSSELL        MOSUNNY   91  69  48 W6        30.07R HX  96
6HR MIN TEMP:  70; 6HR MAX TEMP:  91;

$$

KSZ061>065-074>080-084>089-221900-
SOUTHWEST KANSAS

CITY           SKY/WX    TMP DP  RH WIND       PRES   REMARKS
DODGE CITY     SUNNY     89  67  47 S8        30.13F
6HR MIN TEMP:  69; 6HR MAX TEMP:  90;

ELKHART          N/A     88  67  49 S14         N/A
GARDEN CITY    SUNNY     89  67  47 S9        30.13S
6HR MIN TEMP:  67; 6HR MAX TEMP:  89;

GREAT BEND     SUNNY     93  70  46 S10       30.06F HX  99
LIBERAL        SUNNY     90  68  48 SE9       30.16S
$$

KSZ066>073-081>083-090>101-221900-
SOUTHEAST KANSAS

CITY           SKY/WX    TMP DP  RH WIND       PRES   REMARKS
CHANUTE        SUNNY     92  73  53 MISG      30.09R HX 100
6HR MIN TEMP:  73; 6HR MAX TEMP:  93;

COFFEYVILLE    SUNNY     90  74  59 SW7       30.08S HX  99
6HR MIN TEMP:  72; 6HR MAX TEMP:  90;

HUTCHINSON     SUNNY     95  71  45 VRB5      30.08S HX 102
6HR MIN TEMP:  74; 6HR MAX TEMP:  96;

MEDICINE LODGE   N/A     93  73  52 S7        30.07S HX 102
NEWTON         SUNNY     93  70  46 S8        30.12S HX  99
PARSONS        SUNNY     91  74  57 W8        30.10R HX 100
6HR MIN TEMP:  72; 6HR MAX TEMP:  91;

WICHITA INTL   MOSUNNY   92  73  53 VRB3      30.08R HX 100
6HR MIN TEMP:  75; 6HR MAX TEMP:  93;

WICHITA JABRA  SUNNY     92  76  59 S7        30.09R HX 104
6HR MIN TEMP:  76; 6HR MAX TEMP:  93;

WINFIELD       SUNNY     92  77  61 SW7       30.09S HX 105
6HR MIN TEMP:  73; 6HR MAX TEMP:  92;

$$

KSZ007>012-019>026-033>040-048>060-102>105-221900-
NORTHEAST KANSAS

CITY           SKY/WX    TMP DP  RH WIND       PRES   REMARKS
CONCORDIA      MOSUNNY   96  64  34 SW7       30.04S HX  98
6HR MIN TEMP:  76; 6HR MAX TEMP:  97;

EMPORIA        SUNNY     95  72  47 W3        30.06F HX 103
6HR MIN TEMP:  74; 6HR MAX TEMP:  95;

LAWRENCE       SUNNY     93  73  52 SW7       30.03F HX 102
6HR MIN TEMP:  77; 6HR MAX TEMP:  94;

MANHATTAN      PTSUNNY   97  68  38 W8        30.02F HX 102
6HR MIN TEMP:  75; 6HR MAX TEMP:  97;

OLATHE IND     SUNNY     93  74  53 SW8       30.05F HX 103
6HR MIN TEMP:  74; 6HR MAX TEMP:  94;

OLATHE EXE     SUNNY     89  77  67 VRB7      30.05F HX 101
6HR MIN TEMP:  73; 6HR MAX TEMP:  90;

SALINA         SUNNY     99  69  37 SW8       30.04F HX 105
6HR MIN TEMP:  75; 6HR MAX TEMP:  99;

TOPEKA BILLARD SUNNY     98  70  40 W6        30.02F HX 105
6HR MIN TEMP:  79; 6HR MAX TEMP:  98;

TOPEKA FORBES  SUNNY     98  70  40 SW9       30.04S HX 105
6HR MIN TEMP:  77; 6HR MAX TEMP:  98;

$$


USA.gov is the U.S. government's official web portal to all federal, state and local government web resources and services.